Details From KGON - Groton New London
To KPVC - Provincetown Muni
Flight Number -
Tags Decoded
Created
Modified
Stats Distance 123 nm / 227 km
Max Altitude 0 ft / 0 m
Waypoints 6
Social Downloads 2
Likes 0
Share VATSIM

Download

Looking for another format? Having issues loading an existing format? Contact us
Advertisement - Login to hide

Notes

Decoded

Route

KGON WACKY MVY LFV JANAG KPVC

ID Type Via Altitude Latitude Longitude Leg Dist Tot Dist Heading (true) Name
O KGON APT - 0 ft / 0 m 41.33312˚ -72.05301˚ - 0 nm - GROTON NEW LONDON
WACKY FIX - 0 ft / 0 m 41.34042˚ -71.85619˚ 8 nm 8 nm 87° / 87° -
MVY VOR - 0 ft / 0 m 41.39622˚ -70.61272˚ 56 nm 65 nm 86° / 87° MARTHAS VINEYARD VOR-DME
LFV VOR - 0 ft / 0 m 42.01717˚ -70.03728˚ 45 nm 110 nm 34° / 35° MARCONI VOR-DME
JANAG FIX - 0 ft / 0 m 42.11550˚ -70.12272˚ 7 nm 117 nm 327° / 327° -
O KPVC APT - 0 ft / 0 m 42.06983˚ -70.22628˚ 5 nm 122 nm 239° / 239° -

Altitude Profile

Advertisement - Login to hide

KGON

Details ICAO KGON (GON)
Name GROTON NEW LONDON
Region United States
Timezone America/New_York (UTC-4.0)
Stats Elevation 8 ft / 2 m (AMSL)
Location 41.329978° -72.045405°
Runways 2
Magnetic Variation 13.952° W

METAR

KGON 242325Z 15008KT 2SM BR OVC004 12/12 A3011 RMK AO2 VIS 1 1/4V5 T01170117 $

Decode

TAF

KGON 242113Z 2421/2518 15010KT P6SM BKN004 TEMPO 2421/2424 1/2SM FG FM250000 15006KT 1SM BR BKN004 FM250500 VRB05KT P6SM SKC FM251500 25010KT P6SM SKC

Decode

Departure Runways

ID Width Length Bearing (true) Bearing (mag) Surface Threshold Offset Overrun Length
05 150 ft / 46 m 5,002 ft / 1,525 m 33.87° 47.82° Asphalt 0 ft / 0 m 279 ft / 85 m
15 100 ft / 30 m 3,999 ft / 1,219 m 135.16° 149.11° Asphalt 308 ft / 94 m 0 ft / 0 m
23 150 ft / 46 m 5,002 ft / 1,525 m 213.88° 227.83° Asphalt 0 ft / 0 m 390 ft / 119 m
33 100 ft / 30 m 3,999 ft / 1,219 m 315.17° 329.12° Asphalt 207 ft / 63 m 0 ft / 0 m

KPVC

Details ICAO KPVC (PVC)
Name Provincetown Muni
Region United States
Timezone America/New_York (UTC-4.0)
Stats Elevation 8 ft / 2 m (AMSL)
Location 42.072281° -70.220737°
Runways 1
Magnetic Variation 14.877° W

METAR

KPVC 242256Z AUTO 19012G18KT 10SM CLR 13/07 A3011 RMK AO2 SLP194 T01330067

Decode

TAF

Not found

Destination Runways

ID Width Length Bearing (true) Bearing (mag) Surface Threshold Offset Overrun Length
07 100 ft / 30 m 3,495 ft / 1,065 m 59.23° 74.11° Asphalt 0 ft / 0 m 0 ft / 0 m
25 100 ft / 30 m 3,495 ft / 1,065 m 239.23° 254.11° Asphalt 0 ft / 0 m 0 ft / 0 m

Approach Navaids

Runway Type Ident Frequency Range Bearing (true) Bearing (mag) Slope Elevation
07 Localiser IVQO 111.10 MHz 18 nm / 33 km 59.22° 74.10° - 8 ft / 2 m (AMSL)
07 Glidescope IVQO 111.10 MHz 10 nm / 19 km 59.23° 74.11° 3.00° 9 ft / 3 m (AMSL)
07 DME IVQO 111.10 MHz 18 nm / 33 km - - - 8 ft / 2 m (AMSL)